Wind_Speed
25 25 26 26 27 27 28 28 28 28 28 28 28 29 29 27 24 21 19 17 17 17 14 12 10 9 9 10 10 11 15 15 13 10 14 13 10 11 10 9 11 8 7 8 11 11 10 12 12 10 8 7 9 3 2 3 4 1 0 4 4 7 5 3 3 6 8 8 5 2 1 5 5 2 2 2 6 5 2 7 7 7 9 10 13 15 14 14
25 25 26 27 27 28 28 29 29 29 29 29 29 30 30 28 25 21 19 18 18 17 14 11 9 8 9 9 10 11 15 15 14 16 19 19 17 16 15 15 13 7 8 11 12 11 9 8 5 6 5 6 7 0 4 5 4 2 3 5 5 7 5 3 6 8 9 10 7 4 3 6 4 1 2 2 4 5 3 8 7 8 10 11 13 13 13 13
25 26 26 27 28 29 29 29 29 30 29 30 30 31 31 28 24 22 21 19 18 16 12 10 8 8 8 9 9 10 13 14 13 12 12 16 19 18 18 15 10 7 9 12 12 10 11 12 10 8 6 6 5 4 6 5 3 2 5 5 5 6 7 7 8 9 10 10 9 7 6 6 4 2 3 2 4 4 3 3 5 9 9 10 11 10 12 12
25 26 27 28 28 29 30 30 30 30 30 31 31 32 31 28 25 23 22 20 17 14 10 8 7 7 8 8 8 8 10 12 6 2 3 7 11 13 13 9 7 7 9 13 14 15 15 14 13 10 9 7 3 5 7 6 3 4 6 6 8 7 9 9 8 10 10 8 8 8 7 6 4 4 2 3 3 4 1 4 1 9 10 10 11 9 11 11
25 26 27 28 29 30 30 30 31 31 31 31 32 33 31 27 25 24 21 19 14 11 8 6 6 7 8 8 6 6 8 6 3 6 3 3 6 7 8 6 5 6 10 13 14 17 16 14 14 10 9 7 4 6 8 8 5 5 9 11 11 9 10 9 7 9 9 9 9 8 5 3 1 2 1 3 1 4 3 4 4 6 10 9 10 10 10 10
25 26 27 28 29 30 30 31 31 31 31 31 32 33 31 27 25 23 20 17 12 8 6 4 5 7 8 7 5 4 7 3 4 3 2 4 4 4 6 7 5 7 10 12 15 16 13 15 13 5 4 3 5 9 8 9 8 6 9 11 11 11 11 10 9 9 8 8 8 5 3 3 2 1 3 2 1 4 4 3 5 2 9 10 9 10 9 9
25 26 27 28 29 30 30 31 31 31 31 31 32 33 30 26 24 21 18 14 9 6 4 4 5 7 7 6 4 3 9 6 2 3 2 4 3 5 8 8 7 7 9 12 15 13 12 14 11 8 5 3 7 8 7 9 11 8 8 10 11 12 12 12 10 9 10 8 5 4 4 4 5 4 5 4 4 5 5 5 6 4 8 10 9 9 9 8
25 26 27 28 29 30 31 31 31 31 31 31 32 32 29 25 23 20 16 11 8 6 4 5 5 6 7 4 4 6 9 3 6 5 3 4 0 7 9 8 8 8 10 12 13 12 11 13 11 8 8 7 6 5 4 5 10 9 8 10 10 10 11 14 12 10 12 11 7 5 6 10 9 6 6 6 5 5 6 6 6 4 8 9 8 9 8 7
25 26 27 28 29 30 30 31 31 31 31 31 32 32 28 24 22 17 12 8 6 6 6 6 5 7 7 5 6 8 2 6 6 3 3 4 1 7 9 7 9 10 11 12 12 12 9 10 11 9 11 10 6 7 6 5 7 8 9 10 8 7 9 13 13 12 11 11 11 8 8 10 10 7 6 7 7 6 8 9 7 6 10 9 9 8 7 8
26 27 27 28 29 29 30 31 31 31 31 31 31 31 26 22 20 14 9 7 6 7 6 6 5 6 7 6 8 6 4 8 5 4 5 4 4 7 8 8 9 9 11 12 12 11 9 9 10 11 10 9 6 7 8 8 6 7 10 10 8 7 5 8 10 10 10 10 12 10 8 9 11 8 4 7 11 9 9 11 9 7 8 9 10 9 7 7
26 27 27 28 29 30 30 30 31 31 31 31 31 30 25 20 17 11 7 6 6 7 6 5 5 5 8 9 9 4 6 6 5 7 7 6 7 8 8 9 8 9 11 11 12 10 8 10 11 10 7 8 7 7 9 9 8 6 9 8 7 4 1 5 9 7 7 7 7 6 7 8 9 7 5 8 12 13 11 10 11 9 8 9 10 9 7 6
26 27 27 28 29 30 30 30 31 31 31 30 30 29 23 18 15 9 6 6 6 6 5 5 4 5 8 9 10 6 3 3 3 5 6 7 7 8 8 9 9 10 11 11 13 11 10 11 12 10 8 10 5 6 8 10 10 7 5 4 4 1 1 7 10 6 5 5 5 3 4 5 6 5 9 10 11 13 9 6 10 11 9 9 9 8 7 7
27 27 28 28 29 30 30 30 30 30 30 30 30 28 22 16 13 9 7 5 5 6 5 5 4 5 7 7 6 6 4 3 3 2 4 7 7 8 8 10 10 11 12 12 14 14 13 12 13 12 10 11 4 10 8 10 12 8 7 1 1 2 2 9 8 3 4 5 4 2 1 3 5 6 10 11 15 16 9 6 9 8 6 8 9 8 8 8
27 27 28 28 30 30 30 30 30 30 30 29 29 27 20 14 11 9 7 5 4 5 4 5 6 4 6 8 2 7 4 2 4 5 6 8 8 9 9 9 10 11 12 13 14 14 14 13 14 12 9 11 4 12 11 6 6 3 8 5 3 1 4 7 6 4 4 4 3 3 2 4 3 5 7 9 14 17 13 11 10 6 5 6 7 7 8 8
28 28 28 29 30 30 30 30 30 30 29 29 29 25 18 14 11 9 7 6 4 5 6 8 7 5 6 10 4 6 7 7 8 9 8 9 9 9 10 10 10 11 11 13 13 12 13 13 12 10 9 10 10 7 9 3 2 2 5 3 2 2 4 7 7 7 6 6 3 6 3 4 4 2 4 6 8 12 9 8 12 11 10 7 5 8 6 4
28 28 28 29 30 30 31 30 30 30 29 29 28 22 16 14 11 8 8 7 5 5 6 6 8 9 6 4 2 4 7 9 12 12 11 11 11 10 9 8 9 10 11 12 12 12 12 12 10 9 11 9 9 6 6 3 0 2 4 1 1 3 2 5 8 8 9 7 5 8 4 3 3 1 1 4 5 9 6 3 8 10 10 9 7 7 5 5
29 29 28 29 30 30 31 30 30 30 29 29 27 20 15 13 11 8 8 7 6 7 7 9 9 8 7 5 2 5 10 9 9 12 12 11 11 11 7 5 8 9 11 12 12 13 10 10 8 8 9 8 9 4 4 3 3 5 4 2 2 2 1 2 6 10 13 9 4 6 4 5 4 3 4 0 3 7 6 3 6 5 5 7 4 2 1 3
29 29 28 29 29 30 30 29 29 29 29 29 24 18 16 14 12 9 7 6 5 6 9 11 11 6 7 9 6 5 7 7 8 9 10 9 11 12 8 7 9 8 9 10 11 11 9 8 7 8 9 6 8 4 3 2 1 7 9 3 2 4 1 2 8 12 12 9 4 5 5 6 2 4 3 6 5 6 8 4 5 6 4 3 2 3 2 0
29 29 28 29 29 30 30 29 29 28 30 28 20 17 15 11 8 8 9 7 4 6 4 4 9 4 4 6 4 2 3 6 6 7 9 9 10 10 10 10 10 9 8 8 8 10 8 7 6 9 6 1 7 7 2 5 7 1 9 8 2 2 3 5 8 13 14 10 6 5 4 7 3 5 6 7 7 7 9 5 5 4 3 2 1 2 3 3
29 29 28 28 29 30 29 28 28 27 29 27 20 14 9 6 3 3 7 9 9 11 9 3 10 8 6 3 4 3 4 5 6 7 9 10 9 9 10 9 9 9 8 10 9 8 7 7 8 8 6 4 7 7 7 8 7 7 2 9 3 2 5 4 7 13 15 12 3 2 2 8 5 7 10 7 3 5 6 6 6 5 3 1 2 0 1 1
29 28 28 29 29 30 29 28 27 26 26 23 16 9 6 6 5 3 3 7 12 15 15 11 10 11 9 4 2 2 2 6 10 9 11 12 10 9 8 8 10 8 9 12 11 8 7 8 9 10 12 7 5 8 8 9 7 9 5 5 3 2 4 5 7 11 15 13 5 8 4 6 4 9 9 5 3 2 1 5 10 5 4 4 4 3 1 0
29 28 29 29 29 30 29 28 26 25 21 13 9 9 7 9 7 7 8 8 11 14 15 13 12 11 10 8 2 2 6 7 10 10 12 12 10 9 7 9 10 8 10 11 10 9 8 9 10 12 15 9 6 7 8 10 9 7 5 2 2 2 4 4 7 12 12 10 7 8 4 2 4 8 8 6 4 3 1 4 8 8 7 6 5 3 3 4
28 28 29 29 30 31 29 27 25 22 15 9 9 12 10 10 8 10 8 7 10 12 12 12 12 10 10 10 8 7 7 8 8 9 13 13 11 10 8 9 10 11 11 11 10 8 7 8 10 12 14 9 6 8 9 10 8 7 6 1 4 3 3 2 8 14 9 7 7 8 4 1 2 4 5 5 4 6 6 5 5 4 4 4 4 4 4 5
28 29 29 29 31 30 28 27 21 13 9 10 14 14 10 9 8 10 8 7 9 9 9 10 10 10 10 7 7 11 9 8 8 8 14 13 10 10 10 10 10 11 11 13 14 12 12 10 7 8 8 6 7 9 10 8 5 8 6 3 3 3 0 0 9 15 9 6 7 7 3 2 1 2 5 4 4 7 8 4 4 6 6 6 5 5 5 5
29 29 29 30 30 29 29 23 12 7 7 11 14 10 6 6 7 8 7 6 6 6 8 8 7 8 8 5 5 10 9 8 10 9 13 15 12 9 9 9 8 10 11 15 16 11 13 13 11 11 7 7 8 8 10 7 5 5 5 7 3 6 6 2 9 12 7 1 4 3 3 2 2 3 6 3 4 8 6 4 6 5 4 5 4 4 7 8
29 29 29 30 29 30 24 11 7 13 13 12 8 5 4 5 7 8 6 5 5 6 8 8 6 5 7 8 7 8 9 8 10 12 11 16 14 10 8 7 6 9 10 11 12 8 8 13 14 11 6 8 10 9 10 8 6 4 5 7 9 2 5 6 6 6 5 1 0 3 3 1 1 6 8 7 7 9 5 3 6 4 2 5 5 4 7 8
30 29 30 29 28 27 16 6 12 17 11 4 4 6 5 5 7 6 5 5 4 7 9 6 5 6 7 8 10 9 6 4 10 11 8 13 13 11 10 9 7 9 10 6 7 6 7 13 13 6 6 9 9 9 9 5 6 5 7 8 9 7 3 6 6 4 6 4 2 3 0 1 2 4 8 9 9 7 4 4 5 4 3 4 6 6 7 9
31 30 30 28 25 21 13 13 16 13 7 9 8 8 6 6 7 5 5 3 2 5 6 4 4 5 6 8 12 11 4 2 9 10 8 10 12 11 10 11 10 10 11 7 6 6 7 13 12 6 8 9 6 10 12 7 6 5 10 11 9 9 6 5 9 6 7 4 2 3 3 1 2 3 4 7 8 6 6 7 6 5 4 3 6 9 8 9
32 30 28 27 23 14 11 12 11 11 11 11 10 9 7 7 7 4 5 3 3 3 2 4 4 6 7 8 12 13 7 6 5 9 12 12 12 11 8 10 13 12 12 11 10 10 7 7 7 8 8 8 7 13 13 8 5 7 10 10 11 6 6 5 5 8 6 4 4 7 4 1 1 4 4 4 6 6 7 7 7 6 5 5 7 8 8 8
32 29 26 26 19 7 5 11 12 10 10 10 10 9 8 8 5 5 5 2 4 5 4 4 6 8 10 10 11 12 11 9 3 7 11 10 12 12 7 6 10 11 12 11 13 16 12 5 5 8 9 10 9 9 9 9 8 11 10 9 11 3 4 5 6 7 4 2 5 6 7 2 2 3 4 4 6 8 8 7 7 7 6 6 7 7 7 8
31 27 23 22 16 7 5 7 5 7 6 8 10 8 8 5 4 6 3 1 1 4 6 6 8 10 12 11 10 10 12 11 7 7 8 7 9 11 7 6 6 7 9 9 11 15 16 11 7 7 10 12 13 10 9 10 9 9 8 8 8 3 3 2 3 4 1 3 4 2 7 6 2 3 3 7 8 8 10 8 9 10 7 7 8 7 7 8
28 23 20 19 17 13 12 6 3 7 6 6 8 7 6 4 6 6 2 3 3 3 5 7 9 10 12 12 10 12 13 10 10 8 8 8 8 9 9 9 6 6 8 8 8 10 12 12 11 9 8 11 14 10 7 10 10 7 6 8 6 1 2 3 0 2 0 5 5 5 10 7 3 5 4 9 9 9 10 10 11 11 8 8 8 8 6 7
24 20 17 14 13 14 14 9 6 7 7 6 7 5 5 5 4 3 3 1 2 1 1 6 8 9 12 11 9 13 13 10 12 11 11 10 9 10 12 13 11 9 7 7 8 7 8 11 14 14 9 10 12 9 8 8 6 7 7 6 5 1 2 3 2 0 1 6 4 4 3 3 5 4 4 8 10 10 10 10 11 10 9 9 9 10 8 6
19 14 10 7 9 9 8 8 7 7 8 7 7 5 6 6 2 1 3 3 2 0 1 5 8 8 10 10 9 13 11 9 11 12 11 10 9 9 11 14 17 13 8 8 8 7 9 9 11 14 9 9 12 11 12 10 7 7 7 5 2 2 3 6 2 1 3 4 3 9 2 2 2 2 1 7 9 10 10 10 10 9 10 11 10 11 9 4
14 7 5 5 8 7 5 8 8 7 7 6 6 6 6 4 2 2 2 3 1 3 3 3 6 8 9 9 9 12 9 8 11 11 9 10 9 8 9 12 16 14 9 8 6 7 10 9 9 14 13 11 12 13 13 13 9 7 7 6 4 3 4 5 5 5 5 1 5 5 2 3 2 4 4 8 10 10 10 8 9 9 10 11 10 9 7 5
12 5 4 7 9 5 5 8 8 8 7 5 6 5 3 3 4 3 1 3 4 1 5 4 6 7 7 6 7 9 10 9 9 10 8 10 11 10 10 10 15 16 12 8 6 6 8 8 10 13 15 14 13 12 12 11 7 5 6 4 5 4 4 4 6 5 2 3 3 2 3 4 5 3 1 7 11 10 9 9 9 10 11 11 8 6 7 7
14 7 6 8 8 7 8 8 8 8 7 5 6 5 5 5 5 4 1 1 6 4 1 4 6 6 6 7 6 8 11 9 8 7 7 9 9 10 11 10 12 17 16 11 7 5 5 8 9 9 11 12 12 11 12 13 10 7 5 2 4 6 4 3 4 3 2 1 2 5 7 6 4 2 2 4 9 10 10 9 10 10 10 9 7 5 6 7
14 9 10 8 8 9 9 8 8 8 5 5 7 8 9 6 2 4 4 3 5 4 5 5 4 5 6 6 8 10 9 8 8 7 7 7 8 10 12 9 7 13 16 15 9 4 5 9 6 7 8 7 8 9 10 13 14 13 9 3 3 4 3 2 3 5 4 2 2 7 7 5 3 3 6 8 9 11 11 8 9 10 9 9 8 6 7 7
10 7 6 8 12 10 9 9 8 6 4 7 7 5 9 7 1 2 4 4 6 4 6 7 2 3 7 6 7 10 10 8 7 7 7 5 6 11 13 10 8 11 12 12 10 5 4 7 6 6 9 7 6 7 8 9 13 14 12 9 6 5 4 2 1 3 3 1 2 4 2 3 4 4 6 8 9 11 12 7 7 9 8 7 7 6 6 5
8 5 2 11 12 10 10 8 7 5 5 8 5 4 10 7 2 2 3 3 5 4 5 7 3 3 6 8 6 7 8 9 7 5 8 7 6 8 11 10 9 11 10 10 10 7 6 7 8 5 9 7 6 7 9 9 8 9 9 8 7 5 5 4 2 2 1 1 1 3 3 3 5 5 6 8 9 9 11 8 6 9 9 6 6 6 5 5
7 6 3 11 10 11 9 6 6 6 6 6 6 8 8 4 4 4 2 1 4 5 4 7 7 4 7 9 5 8 7 8 9 7 6 8 7 6 10 11 9 9 9 10 10 8 7 6 8 7 5 6 8 8 10 11 10 9 7 8 8 7 6 6 4 3 2 4 3 2 4 4 5 4 2 3 7 9 11 9 7 8 9 6 5 6 5 3
6 4 5 11 11 11 7 6 5 6 6 5 9 10 3 2 5 7 2 3 3 4 3 5 10 8 6 6 1 7 7 6 9 10 5 7 10 7 8 12 11 10 8 7 9 9 7 6 7 9 6 7 10 10 12 13 14 14 10 7 8 7 7 7 3 2 2 2 4 4 4 2 6 7 4 0 6 10 11 10 8 8 8 5 4 5 5 3
4 5 4 12 13 10 6 6 4 6 7 6 10 10 3 2 6 5 2 4 2 3 4 5 7 7 4 4 3 6 10 7 9 10 8 9 8 5 8 9 8 9 7 5 8 9 8 7 7 8 9 9 8 7 11 12 12 13 11 7 8 9 7 6 4 4 3 2 4 5 3 1 2 4 3 4 9 13 12 9 8 8 7 4 4 5 5 3
6 8 2 9 12 9 7 5 4 5 6 9 9 5 4 5 7 6 3 3 3 3 3 2 2 3 3 4 5 2 4 6 11 10 6 5 5 9 8 6 6 8 6 6 7 7 7 7 6 7 8 7 7 7 9 12 10 9 8 7 11 13 9 4 4 4 2 2 1 4 3 2 3 3 5 8 12 15 13 10 8 8 6 5 6 6 5 4
6 6 4 7 12 8 8 6 6 3 4 12 11 3 7 9 10 11 7 3 4 2 2 4 3 2 2 1 3 3 3 4 6 6 4 3 7 8 7 5 6 9 6 6 8 6 6 7 7 7 8 6 6 7 5 7 7 6 7 10 12 12 9 5 4 5 2 2 3 5 4 4 5 5 7 11 12 14 14 10 8 8 7 7 6 6 6 4
5 4 3 5 8 6 8 7 8 5 2 9 7 2 4 5 9 12 6 4 6 1 3 4 5 3 1 3 4 4 3 5 6 4 5 6 5 6 7 4 8 6 3 3 5 5 4 6 8 9 10 8 6 7 3 2 4 6 9 13 13 11 10 8 6 6 2 3 6 7 10 9 8 7 8 11 11 12 12 10 8 8 7 7 8 6 6 4
5 4 5 3 2 5 6 6 7 6 3 4 3 3 2 2 7 11 3 0 9 4 3 6 5 7 5 6 6 6 4 4 5 5 5 5 1 5 6 3 9 2 6 4 7 4 4 7 8 11 14 13 13 12 9 6 8 11 12 13 14 14 14 12 11 8 3 1 3 9 13 12 10 9 10 10 8 9 10 9 8 8 7 7 8 7 5 4
5 5 6 8 4 6 4 5 8 9 9 5 1 5 3 5 7 13 3 4 7 9 6 6 7 10 8 1 3 2 7 7 5 7 6 5 5 1 5 7 8 4 0 6 7 4 5 7 9 12 14 15 17 18 15 10 11 13 12 11 12 15 16 15 14 10 6 3 3 10 12 11 10 10 13 13 10 9 11 10 9 9 7 7 8 6 4 3
7 5 7 10 8 9 8 8 9 10 12 7 3 8 6 5 3 11 5 0 4 11 12 3 6 10 11 2 5 4 4 4 2 5 6 6 9 9 2 6 8 9 7 8 7 5 5 7 10 13 12 12 16 18 16 12 10 9 10 13 16 13 12 13 12 10 9 5 10 13 12 11 11 12 14 13 9 8 12 11 9 9 8 7 7 4 3 4
7 5 7 9 8 9 9 10 9 8 8 7 5 7 7 3 3 6 8 3 6 3 13 6 4 9 10 10 5 4 8 2 1 3 7 7 7 8 5 4 4 8 10 8 6 7 6 6 9 11 10 10 14 16 15 12 10 10 11 14 14 12 11 11 10 9 7 6 10 13 11 9 10 12 12 10 10 12 12 11 10 9 8 7 6 4 4 5
11 9 8 8 7 8 8 8 7 7 6 5 3 3 4 6 5 5 7 5 5 6 5 5 5 7 9 13 13 8 7 4 3 5 9 9 8 7 7 7 7 3 7 6 6 7 7 6 8 8 8 9 10 13 16 17 16 14 14 13 11 10 11 10 9 10 10 8 10 11 7 8 9 12 14 14 15 13 11 11 10 9 8 5 5 6 5 3
14 11 9 7 6 7 8 7 8 7 5 3 2 5 5 6 8 7 6 6 3 2 3 5 7 7 4 6 7 11 8 6 7 9 9 11 12 11 10 9 10 9 4 5 7 7 6 6 7 6 6 7 7 10 14 15 15 12 8 8 9 12 14 11 6 11 14 8 3 1 5 11 12 13 14 14 14 12 10 9 8 8 8 4 5 6 4 2
Wind_Direction
3 3 3 3 3 3 1 359 357 356 354 353 351 349 348 345 344 341 336 332 332 331 326 325 322 319 316 310 308 305 309 312 303 265 238 253 273 286 290 295 305 291 234 219 230 234 230 229 226 238 256 257 244 213 20 350 43 7 61 57 16 33 36 3 58 103 111 114 116 133 145 89 82 42 319 340 32 358 13 80 67 72 86 98 113 119 119 123
2 2 2 2 2 1 360 358 356 355 354 353 350 349 347 345 344 341 336 330 328 329 326 323 321 320 312 308 309 310 319 312 284 265 251 254 264 270 277 282 288 268 211 215 229 236 259 274 259 249 259 277 272 151 70 68 76 339 31 61 30 41 68 57 80 104 106 115 124 119 98 81 86 66 21 3 26 1 54 95 91 90 96 102 106 112 121 133
1 1 0 360 360 359 358 357 355 354 353 352 350 349 347 345 343 339 335 328 325 327 324 322 319 315 308 305 307 320 326 306 277 263 246 242 249 257 269 273 268 242 215 223 239 257 289 305 307 294 278 282 306 19 51 81 111 75 54 58 56 65 84 82 84 94 97 108 113 100 86 76 71 30 38 61 50 26 32 89 120 120 119 122 119 127 136 141
360 359 359 358 357 357 356 355 354 353 353 351 349 348 346 344 342 338 334 327 325 324 322 322 318 309 306 302 307 333 319 289 275 102 136 220 243 255 261 255 237 228 228 242 263 283 292 294 291 285 278 285 339 22 30 50 63 63 65 73 83 86 84 85 88 90 89 93 92 84 84 76 37 5 60 123 87 63 25 316 127 137 139 138 137 145 143 144
357 357 357 356 355 355 354 353 353 352 352 351 349 348 345 343 341 339 335 331 327 323 323 317 314 306 299 297 308 331 301 275 97 85 70 265 263 261 242 211 197 209 229 248 273 284 286 284 277 264 252 268 3 30 21 35 55 50 60 85 100 100 97 102 104 99 95 96 88 68 72 98 8 356 117 175 136 94 146 280 291 142 142 148 149 149 146 154
355 356 355 354 353 352 352 352 351 351 351 350 349 347 345 343 340 340 338 336 332 327 329 315 315 304 293 299 314 304 269 281 84 90 348 311 290 248 195 166 172 200 233 258 273 278 287 288 286 293 252 238 38 42 26 30 51 49 54 74 91 99 111 120 119 115 107 97 97 102 132 162 150 178 214 211 102 107 139 218 266 189 149 152 150 149 154 161
354 354 353 353 351 350 350 350 349 350 350 349 348 347 344 342 341 341 339 340 340 340 335 320 314 298 294 305 315 237 249 274 87 108 15 345 303 201 167 153 171 199 239 261 270 282 301 304 323 350 334 43 56 50 41 36 43 48 62 64 70 84 101 115 121 126 120 108 106 126 146 178 173 171 196 189 148 146 145 179 252 259 154 154 155 155 157 160
353 352 352 351 349 349 349 348 348 348 348 347 347 346 343 341 341 340 339 344 350 351 338 324 314 291 301 310 273 241 245 235 106 96 41 13 22 176 159 157 186 214 242 255 274 294 306 318 352 355 329 6 38 47 51 48 40 42 65 68 74 81 95 117 138 149 141 133 139 160 172 187 186 167 182 193 171 163 157 170 245 243 159 162 159 156 155 160
351 350 349 349 347 347 347 347 347 346 346 346 346 346 342 341 340 339 342 349 355 349 337 327 305 284 297 298 269 266 233 109 107 85 69 54 106 174 164 176 201 219 246 261 275 289 306 329 352 342 329 338 4 42 49 57 39 36 58 61 68 83 104 123 137 145 139 130 141 165 184 183 174 164 183 194 181 184 175 172 222 208 166 169 156 157 164 161
349 348 347 346 345 345 346 346 346 345 345 343 345 345 341 340 340 339 344 351 357 345 337 326 304 292 290 270 265 266 113 109 119 114 112 107 131 168 187 210 209 219 253 273 280 293 313 325 330 323 320 317 339 40 56 68 53 32 50 55 55 53 78 106 109 117 114 123 143 161 187 175 169 177 179 187 183 186 188 180 200 195 167 173 157 160 171 163
346 345 344 344 343 344 345 345 345 344 342 341 343 344 339 339 340 338 341 350 353 339 338 325 300 297 288 270 269 266 112 116 127 128 141 141 152 182 210 224 224 235 259 277 282 295 317 323 321 313 319 327 346 48 61 79 90 49 40 51 71 60 350 93 87 82 92 110 123 140 171 169 181 190 150 175 170 166 192 184 177 186 175 174 162 161 171 173
344 343 343 342 341 342 343 344 344 342 341 339 340 341 337 335 337 336 333 343 345 335 334 315 298 305 298 275 255 244 124 139 140 129 165 166 179 203 217 230 238 255 270 281 287 303 325 323 314 307 317 322 339 74 57 63 70 26 4 47 82 189 287 76 75 61 78 91 84 114 160 158 198 181 147 165 139 140 192 187 167 181 179 176 172 168 171 179
341 341 339 339 340 341 342 342 342 340 339 337 338 338 333 329 332 327 324 333 334 324 316 300 295 295 288 277 243 202 154 180 172 155 195 192 207 213 222 239 246 261 271 276 287 301 311 310 306 305 307 306 336 93 81 59 51 356 310 314 167 221 86 82 89 93 69 80 116 171 83 111 174 158 149 154 125 132 175 201 183 177 188 191 175 176 177 177
338 338 336 336 337 338 340 340 340 338 336 334 335 334 328 323 323 318 315 315 315 308 296 288 288 278 262 270 243 144 164 229 201 217 213 204 221 221 222 241 250 257 264 269 278 286 293 294 292 291 284 280 281 103 97 58 53 332 291 280 243 244 88 94 111 135 102 107 157 266 357 79 108 120 129 141 136 144 168 185 161 143 212 201 166 189 188 175
334 335 334 333 334 336 337 338 338 337 335 332 332 331 323 314 314 312 306 302 298 283 288 289 264 244 263 262 220 150 199 230 225 224 214 210 225 229 223 228 243 253 258 266 274 279 283 284 284 283 281 272 249 155 116 63 33 208 256 263 276 339 104 122 138 142 120 121 68 349 350 56 49 70 120 142 146 139 156 171 137 150 196 187 177 199 189 175
331 331 331 331 331 333 334 337 336 335 333 329 329 326 315 309 306 304 304 296 282 271 281 287 237 221 266 285 135 158 202 215 223 220 214 215 222 236 234 224 238 253 255 260 268 271 274 275 277 273 282 286 257 216 132 129 156 212 240 211 34 324 74 128 154 135 102 105 46 10 1 14 32 5 65 144 131 110 126 149 121 149 169 161 193 201 187 187
329 329 330 329 329 330 332 334 335 334 331 328 327 321 312 309 295 290 300 284 278 272 261 281 276 248 260 290 294 226 214 212 210 203 205 211 223 244 258 240 241 248 250 254 257 260 264 265 270 263 255 253 250 235 124 203 214 168 220 270 128 154 55 120 136 97 80 89 44 9 356 341 30 35 335 200 120 101 109 117 115 125 130 144 179 149 182 202
330 329 328 328 328 329 330 332 333 333 329 326 325 316 310 305 287 284 285 273 278 264 256 267 275 277 246 242 260 251 218 190 175 188 199 205 223 245 260 256 256 253 251 254 246 245 252 250 260 274 259 247 266 260 144 248 308 146 175 199 148 167 162 96 109 99 91 94 53 5 340 319 29 95 359 2 19 63 71 43 82 109 104 121 126 93 114 190
331 329 329 327 327 328 328 331 332 332 329 324 323 319 308 295 278 265 246 237 225 235 263 215 213 277 322 220 213 8 61 116 157 197 201 207 216 231 248 256 265 266 260 260 235 220 239 254 244 259 269 268 279 285 338 343 350 73 162 159 206 181 95 56 102 124 120 96 55 29 341 301 343 83 74 35 358 34 71 43 29 65 80 63 21 80 130 149
334 331 330 327 327 327 327 329 328 331 329 321 323 324 302 285 268 221 216 224 227 247 287 255 209 249 294 224 161 114 77 124 193 218 208 212 211 220 236 244 253 254 256 264 251 216 220 255 252 256 279 256 265 308 345 331 319 312 209 153 161 58 97 100 115 123 113 95 81 150 212 277 321 59 75 74 21 29 87 117 74 32 10 14 274 285 296 170
335 332 331 328 327 326 325 327 326 327 325 317 317 309 302 348 349 349 327 256 239 241 255 254 236 245 258 288 55 80 286 206 203 218 215 209 209 221 216 220 242 238 237 253 263 255 226 244 258 268 280 278 319 338 323 302 289 297 304 130 107 35 121 148 125 115 108 103 163 189 178 284 338 76 89 90 77 43 44 120 116 151 191 174 211 190 214 67
336 334 332 329 327 325 325 325 322 322 317 303 285 265 291 356 351 329 326 292 270 252 242 238 241 254 261 275 291 316 294 230 200 209 208 198 201 217 195 199 234 242 240 240 249 260 240 244 255 260 271 286 339 315 278 283 280 278 285 131 77 58 130 145 116 111 109 103 150 177 140 323 8 80 123 151 152 152 55 62 113 155 165 157 183 159 135 122
336 334 332 329 326 324 324 322 320 316 301 264 251 262 295 337 335 322 307 279 285 266 239 225 225 237 239 240 225 213 248 242 222 202 191 192 198 213 218 210 225 240 245 240 235 248 247 244 243 249 268 287 304 289 275 273 270 279 277 193 70 66 131 155 99 93 88 89 137 166 135 86 1 66 113 124 120 114 90 60 65 87 97 116 138 117 106 105
336 334 331 329 325 324 324 323 316 300 267 236 249 264 294 323 325 325 309 272 278 258 227 214 216 228 224 224 206 197 219 240 240 209 179 189 203 207 230 238 232 234 240 247 243 242 255 262 259 264 286 306 291 277 277 276 285 306 322 38 103 138 66 245 117 101 85 91 144 170 124 77 263 126 104 92 96 88 84 92 65 55 62 69 76 94 97 80
336 333 330 329 326 323 324 321 313 307 288 252 255 268 290 322 333 328 314 271 255 224 201 196 202 221 202 176 178 194 221 232 239 235 180 185 213 205 218 240 244 242 232 242 250 244 253 266 268 265 266 273 273 267 276 296 308 307 17 7 299 133 92 123 138 109 79 102 192 197 37 50 231 151 122 142 125 96 92 119 90 71 88 96 87 85 88 70
336 332 330 328 325 325 325 323 327 328 308 268 270 325 328 335 343 324 303 266 231 173 167 178 180 182 171 166 174 197 232 222 220 238 188 179 214 225 222 225 227 254 248 238 252 254 248 251 252 263 277 268 269 271 281 300 291 276 64 359 322 88 136 165 145 99 99 202 200 61 16 340 134 127 143 160 124 104 111 109 95 106 119 108 102 76 82 83
336 331 329 326 325 330 329 314 323 319 304 299 329 334 336 342 336 315 273 252 217 163 153 162 171 168 175 179 178 194 247 204 188 219 190 167 205 228 234 234 213 238 258 263 261 253 250 251 248 270 294 271 267 268 272 280 271 295 45 19 323 299 246 132 109 82 118 137 45 67 295 300 71 118 151 142 114 105 119 108 95 101 85 96 116 98 85 91
334 331 329 323 321 324 303 290 310 298 296 358 345 314 331 324 306 290 264 266 151 155 151 133 129 162 180 176 187 206 250 202 180 183 175 175 199 214 223 244 248 237 239 249 259 246 238 247 251 260 258 255 263 264 269 277 259 296 17 7 311 298 329 97 118 94 86 90 312 265 223 213 90 102 127 124 122 130 137 129 110 100 102 93 92 86 80 87
333 331 328 321 317 314 286 273 280 274 292 329 325 312 318 298 286 259 261 278 150 173 154 131 144 180 187 172 196 215 212 220 203 155 173 193 205 220 232 243 256 265 252 236 245 257 241 239 280 301 270 249 237 244 265 297 293 301 344 330 281 280 348 3 89 100 88 83 251 234 176 194 17 102 132 141 141 144 132 125 120 120 126 96 78 84 91 94
331 329 327 321 316 320 290 261 259 287 304 301 304 307 294 281 273 245 245 238 172 157 124 149 176 185 188 179 194 211 207 213 215 151 178 192 199 221 261 259 249 265 261 243 240 253 259 259 304 296 275 277 270 263 294 325 314 298 307 290 275 309 34 357 62 102 122 127 234 206 138 181 314 98 155 150 141 145 131 125 129 123 115 110 106 100 89 85
328 328 325 314 303 292 277 255 271 332 313 280 294 290 273 258 240 259 252 124 197 157 150 172 173 174 187 193 187 193 210 207 177 172 182 178 194 210 232 247 243 249 254 251 238 244 254 255 260 258 259 281 288 291 306 302 280 273 280 273 280 13 31 296 73 79 10 314 291 129 145 202 204 68 105 118 122 131 129 132 131 122 118 119 109 91 76 78
328 325 315 299 284 261 249 246 356 342 305 287 289 268 267 250 222 255 245 160 190 190 188 170 163 175 187 204 194 179 208 204 167 189 198 183 200 204 210 220 209 217 235 238 230 238 250 248 251 254 240 248 262 270 270 266 260 245 249 265 267 344 351 299 82 71 199 256 285 117 162 197 74 39 47 100 104 99 112 124 123 124 128 118 104 95 84 83
328 320 304 284 268 253 247 263 306 305 293 285 276 257 260 259 228 253 276 233 105 78 204 156 164 185 184 201 201 177 204 206 169 193 209 200 207 195 202 220 219 219 229 230 231 236 239 232 232 240 237 221 233 252 252 242 239 230 231 255 276 305 317 292 230 90 171 229 287 47 170 189 70 31 21 86 97 93 102 110 114 122 121 110 96 90 83 72
328 313 294 262 257 261 250 257 269 276 277 263 258 252 249 265 316 318 277 310 34 28 240 150 162 184 189 209 202 173 200 215 178 188 202 202 216 202 196 214 223 228 232 238 246 237 236 235 218 222 227 210 212 228 250 265 275 277 274 267 252 156 274 304 294 279 278 214 52 34 6 206 118 230 202 107 106 105 106 105 116 128 123 116 100 87 84 64
329 298 271 247 260 274 239 230 240 248 254 250 256 255 249 278 324 244 259 2 302 190 141 134 176 185 191 218 213 178 195 223 191 191 209 205 211 214 203 203 212 225 233 231 239 242 246 254 227 216 211 211 216 213 231 261 273 280 281 260 241 186 215 286 282 278 302 83 78 54 137 179 187 216 180 135 122 113 116 124 132 125 106 102 102 105 123 137
332 299 244 229 238 241 207 215 219 220 233 253 259 252 253 277 280 265 67 14 305 224 127 163 207 200 182 203 224 189 194 220 198 192 212 213 216 219 216 204 195 207 227 231 228 236 246 258 247 224 205 205 222 213 211 237 248 260 268 275 313 289 236 247 252 262 338 79 82 81 147 158 168 188 181 141 133 127 138 144 133 114 97 92 102 126 140 137
332 302 258 231 209 178 182 192 191 204 227 258 266 265 271 266 275 311 14 289 303 319 199 192 197 209 191 186 209 191 189 203 193 199 207 200 218 225 220 217 191 196 217 235 249 258 270 272 254 215 199 201 213 218 214 220 235 256 260 6 351 293 281 314 290 275 274 99 112 166 170 158 157 194 254 173 151 147 147 133 121 120 116 116 127 133 121 112
321 294 277 236 174 162 179 180 193 216 235 258 257 261 272 275 296 326 339 307 295 285 258 247 192 204 218 196 185 177 185 190 174 194 219 194 197 209 215 224 196 192 209 221 239 289 316 292 262 181 194 204 195 218 227 214 222 242 253 293 319 280 284 327 296 288 294 19 112 179 172 131 130 200 201 192 184 161 144 132 139 146 139 133 139 139 122 114
290 275 275 188 164 169 179 182 213 237 246 253 256 266 275 279 279 321 341 309 282 261 256 264 217 211 251 232 180 163 180 199 177 180 213 203 171 186 203 212 195 190 202 215 230 253 275 283 280 186 188 206 190 208 243 225 211 230 254 277 283 275 264 238 267 302 300 338 159 168 132 111 157 191 191 186 191 164 143 146 158 145 136 136 141 142 134 134
264 270 190 153 160 173 176 192 232 244 239 249 268 270 269 286 1 346 335 295 272 274 277 275 240 197 247 240 192 156 181 208 212 205 204 184 143 170 200 209 205 191 190 214 234 239 228 245 271 226 176 208 231 201 222 240 222 218 231 251 260 262 262 259 268 264 234 277 196 135 89 89 139 171 185 175 179 163 140 146 155 132 126 134 139 137 139 140
273 290 153 148 162 171 179 219 235 235 240 253 269 256 258 314 338 300 290 270 274 277 288 292 287 278 268 255 194 153 185 212 218 226 209 180 171 202 211 200 206 200 183 209 229 228 230 239 261 256 182 210 241 208 208 232 244 240 220 223 241 247 258 263 258 275 335 16 1 77 105 64 60 91 123 153 159 144 126 128 132 116 112 120 134 135 142 143
262 290 144 154 173 177 201 251 240 242 244 233 258 268 293 13 282 282 261 190 239 261 233 253 273 270 253 266 210 152 183 214 227 226 197 191 204 210 187 169 191 214 191 204 225 214 227 254 261 264 256 239 230 204 200 217 236 250 250 243 247 246 258 269 265 284 315 72 66 68 101 31 27 67 75 139 146 123 107 107 108 106 109 127 153 143 147 139
273 309 141 158 179 189 226 264 254 255 255 235 238 251 273 225 246 273 246 197 223 261 213 210 258 274 260 295 320 190 187 196 231 224 184 197 205 144 120 134 175 216 200 199 222 202 203 242 257 263 274 277 267 230 207 208 224 242 243 245 262 260 252 261 277 280 266 183 118 97 126 217 21 69 108 149 125 102 96 115 129 122 116 147 179 147 135 118
312 301 222 165 182 202 234 258 262 258 296 301 268 254 327 299 273 282 262 217 233 246 256 254 265 289 294 313 324 262 195 194 213 218 203 194 143 108 118 140 170 212 208 193 207 188 183 215 238 257 266 264 274 266 219 197 208 239 241 230 245 256 258 256 267 269 290 311 85 108 113 121 111 78 63 94 109 108 112 131 139 128 134 181 185 143 111 89
305 276 251 186 183 208 239 264 292 290 323 294 279 336 345 308 298 294 284 259 239 201 1 308 272 254 222 247 296 305 316 274 228 236 263 202 143 140 149 150 190 222 217 191 204 204 195 200 203 232 255 238 237 263 235 182 190 229 255 259 258 268 286 296 286 279 286 347 38 94 104 105 129 136 92 91 108 119 126 137 138 138 158 171 155 126 102 88
308 275 276 208 182 215 240 250 271 258 257 279 277 6 318 297 299 283 274 305 290 53 70 260 262 295 2 38 314 266 238 257 255 259 247 218 173 138 115 137 217 224 29 5 257 253 232 223 212 218 245 260 262 280 291 181 207 214 226 249 260 270 274 261 256 263 233 82 68 111 142 147 149 150 126 117 126 135 142 149 145 145 146 128 113 106 103 111
301 306 339 350 235 239 234 241 262 259 277 303 333 329 266 72 308 279 154 153 287 358 33 281 339 8 3 36 2 322 344 315 298 313 273 255 336 79 98 232 237 197 36 323 261 270 256 239 234 226 238 256 264 265 257 230 238 244 231 224 226 238 254 258 258 260 247 102 112 143 151 152 153 150 139 140 161 168 157 149 144 142 137 124 113 108 121 139
330 313 348 8 323 275 292 320 308 301 303 313 359 272 229 104 301 283 150 154 301 359 341 281 9 352 308 35 132 303 356 351 338 343 322 305 323 306 163 198 220 180 32 256 235 246 266 251 246 239 233 239 250 258 264 265 255 255 263 262 240 225 224 236 250 254 258 274 141 145 153 156 156 156 154 164 188 178 145 133 132 128 120 114 110 115 144 124
354 321 340 360 330 300 309 307 293 285 288 289 240 248 238 128 243 270 271 121 11 344 308 289 33 325 296 263 166 152 43 345 323 354 339 333 322 305 235 190 208 189 197 241 230 213 251 262 256 255 245 233 241 252 262 276 275 259 261 272 273 261 235 236 254 253 235 197 133 139 159 167 163 161 165 175 176 140 125 125 127 122 113 111 116 136 151 85
355 337 336 338 322 307 300 290 283 276 273 259 235 254 261 236 230 264 289 347 101 275 294 333 11 312 341 12 354 93 89 43 304 342 318 315 318 309 302 287 249 185 182 229 236 187 203 250 253 260 263 242 235 240 241 249 263 265 256 251 259 276 276 269 284 291 267 204 163 164 165 160 154 145 139 134 120 112 117 123 122 119 115 121 136 137 93 62
346 334 328 317 312 315 305 294 286 278 273 249 234 319 291 275 318 326 297 316 122 173 271 328 313 311 16 20 348 357 56 48 304 290 293 295 297 288 282 298 304 239 180 207 236 195 188 238 251 251 261 251 235 234 232 227 227 237 255 263 265 273 277 270 268 274 270 242 222 212 172 123 118 123 116 111 111 115 120 121 117 112 109 119 134 107 75 53
350 337 331 311 293 296 293 287 274 268 290 315 331 339 317 305 325 322 306 322 348 57 15 340 316 316 8 48 348 326 343 350 305 293 292 287 283 277 273 284 292 286 239 204 226 212 194 229 249 244 256 267 259 252 247 235 227 227 247 285 296 283 268 260 282 316 311 291 258 250 124 113 115 124 124 120 121 121 120 115 108 114 119 112 102 95 68 61
Height
809 807 806 804 803 801 800 798 796 794 792 790 787 785 783 782 780 778 777 775 774 772 771 770 768 768 767 766 765 763 762 760 759 759 756 749 745 746 746 746 745 746 746 745 745 744 742 740 738 735 736 737 735 733 731 731 737 748 763 780 786 786 787 782 780 781 782 785 784 781 778 780 783 777 769 767 771 773 768 765 763 759 756 756 757 757 759 762
809 807 805 804 802 801 799 797 795 793 791 789 787 785 782 780 779 777 776 774 773 771 770 769 768 768 766 765 764 763 761 759 758 755 749 746 745 746 745 745 745 745 745 745 743 740 739 737 732 730 734 737 731 727 732 735 742 752 764 779 785 784 781 773 773 774 775 781 782 780 777 778 781 777 771 776 781 776 775 773 769 768 764 760 759 760 762 763
809 807 805 803 802 800 799 797 795 793 790 788 786 783 781 779 778 776 774 773 771 770 769 768 767 766 766 765 763 763 761 759 757 750 743 744 745 744 744 744 744 744 744 743 741 737 737 733 729 730 734 739 731 728 737 737 741 748 759 781 783 774 773 769 770 772 773 777 780 781 778 778 779 774 774 781 785 781 781 779 775 777 773 767 764 762 763 764
809 807 805 803 801 800 798 796 794 792 789 788 785 782 780 778 776 775 773 771 770 769 768 767 767 766 765 764 764 764 761 762 756 743 741 743 743 743 743 743 743 744 743 742 741 737 734 731 729 729 736 741 730 729 740 737 738 743 752 775 774 765 773 772 769 772 774 775 779 782 781 783 780 775 778 782 787 786 783 777 773 775 772 768 766 763 763 764
809 807 805 803 801 799 797 795 793 791 789 787 784 782 779 777 775 773 771 770 769 768 767 767 766 765 764 763 765 762 764 771 755 738 743 743 742 743 742 743 743 743 744 744 742 737 733 729 725 728 736 742 736 737 743 732 732 744 749 759 762 762 774 772 767 771 773 775 782 787 787 786 781 779 780 781 787 786 779 773 768 766 766 766 765 763 764 764
810 807 805 803 801 799 797 795 793 791 789 786 784 781 778 776 774 772 771 769 768 767 767 766 765 765 764 763 764 763 768 770 747 738 744 740 742 742 741 743 742 744 745 745 741 736 733 727 724 729 734 738 740 743 743 730 730 750 754 749 752 758 769 770 767 771 772 777 785 787 785 782 784 785 778 778 780 775 769 767 764 761 760 762 762 763 765 765
809 807 805 803 801 799 796 794 792 790 788 785 783 780 778 775 773 772 770 768 768 767 767 766 765 764 763 763 764 763 765 757 739 740 743 739 742 740 741 743 741 745 744 744 741 736 734 729 728 731 734 738 740 742 741 734 732 750 759 750 750 754 761 767 768 771 774 779 784 783 784 783 787 786 777 777 774 767 764 763 762 760 757 759 762 764 765 766
809 807 805 803 801 798 796 794 791 789 787 785 783 780 777 774 772 771 769 769 767 767 767 766 765 764 763 764 763 762 759 748 738 741 741 740 742 740 742 742 742 745 743 743 739 735 735 734 733 733 740 740 736 739 738 740 743 750 756 751 749 752 756 763 766 772 776 780 785 788 791 785 779 778 778 777 770 765 764 763 763 760 759 761 763 765 766 766
809 807 805 803 800 798 796 793 791 789 786 784 782 779 776 774 772 770 769 768 767 767 766 765 765 763 764 762 761 764 754 741 739 741 740 741 741 741 743 742 743 744 742 742 735 734 736 737 736 733 742 738 731 737 736 747 757 750 749 749 750 752 750 755 762 767 770 776 784 789 789 780 771 774 780 775 768 766 764 765 765 763 763 763 764 766 766 767
809 807 805 802 800 798 795 793 790 787 785 783 781 779 776 774 772 770 769 768 767 767 766 766 765 763 764 761 763 767 749 738 741 741 741 741 741 743 742 742 744 743 742 739 734 732 732 735 732 726 735 735 731 736 737 749 756 745 746 750 751 752 747 749 756 757 761 770 777 784 785 776 768 775 784 774 764 765 767 768 766 765 767 764 764 766 766 767
809 806 804 802 799 797 794 792 790 787 785 782 780 778 776 774 772 770 769 768 767 767 766 765 764 764 763 761 766 763 742 738 743 740 743 742 741 743 742 743 742 742 740 737 733 730 729 730 726 727 736 736 734 739 739 743 748 746 749 756 755 754 751 748 754 756 759 768 769 772 778 774 769 774 779 769 762 766 768 770 768 768 770 766 766 766 766 767
808 806 804 801 799 796 794 792 789 787 784 781 780 777 775 774 772 770 769 768 767 767 766 765 765 764 763 761 760 751 739 741 742 741 743 742 742 743 742 743 741 740 739 736 734 728 729 728 726 737 740 734 739 748 748 741 748 755 755 766 767 760 759 753 756 758 760 768 763 766 781 782 777 774 768 761 763 770 771 770 771 770 770 768 767 767 767 767
807 805 803 801 798 796 794 791 788 786 783 781 779 776 775 773 771 771 769 768 767 766 765 765 765 763 766 762 747 739 740 741 741 742 743 742 742 742 741 742 740 740 739 736 735 730 731 730 729 737 733 735 742 744 746 744 756 766 760 770 775 772 770 758 758 761 761 767 759 768 793 791 777 767 758 755 764 776 780 777 774 772 771 770 768 768 768 767
807 805 802 800 797 795 793 790 788 785 782 780 778 776 774 772 772 770 769 768 767 766 765 765 765 764 767 758 739 738 741 740 742 742 741 742 741 740 740 740 739 739 738 736 735 732 732 729 729 733 730 735 734 732 748 758 765 772 772 773 773 781 779 760 758 763 767 768 756 769 795 789 773 762 752 753 762 772 778 778 777 778 775 771 770 770 769 766
806 804 802 799 797 794 792 789 787 784 782 779 776 775 773 772 771 769 769 768 766 766 764 764 764 763 765 754 738 739 740 739 741 739 740 741 739 739 737 738 739 737 737 736 734 732 731 729 732 739 735 726 724 739 765 776 775 777 784 785 774 776 777 763 758 761 769 768 757 771 792 785 773 764 752 750 755 762 771 772 775 783 779 774 774 771 771 769
805 803 801 799 796 793 791 788 786 783 780 778 775 774 771 771 770 769 769 767 766 766 764 765 761 761 766 754 738 739 740 737 738 738 739 739 738 737 734 735 736 735 735 733 733 731 728 730 733 736 735 732 734 746 768 783 785 783 785 788 780 774 775 771 760 751 758 767 765 776 791 787 774 764 754 748 750 760 772 772 773 780 776 775 776 772 772 772
804 802 800 797 795 792 790 787 785 782 779 776 774 771 770 769 768 768 768 767 767 764 764 763 757 760 760 745 740 742 736 734 735 736 737 737 738 736 734 735 734 733 732 730 732 730 729 733 735 735 735 739 736 741 774 793 788 785 783 780 777 774 775 777 771 758 759 771 777 781 788 785 775 767 758 751 750 759 772 775 773 774 772 772 774 776 778 775
802 801 798 796 794 791 789 787 784 781 778 774 772 770 769 768 767 767 767 766 766 765 767 762 759 769 762 743 741 738 729 731 734 734 736 737 737 736 735 735 732 731 734 736 734 732 735 734 738 745 741 739 737 745 781 789 770 776 784 778 774 770 769 771 775 772 767 776 784 790 795 785 773 768 765 760 757 762 773 774 773 774 774 773 773 777 779 778
801 799 797 795 792 790 788 785 783 781 777 773 771 769 766 766 765 766 766 766 767 768 768 762 760 768 761 742 735 732 728 732 735 735 736 736 736 737 735 735 733 736 745 750 742 735 739 741 746 755 751 746 746 744 757 757 747 757 766 770 769 766 767 763 764 766 765 782 791 793 800 791 775 770 771 771 764 766 776 776 777 780 779 777 775 775 774 775
800 798 796 793 791 789 786 784 782 780 777 773 770 769 767 766 767 767 764 762 761 757 755 752 750 752 748 736 730 732 734 736 737 736 735 736 735 737 737 737 739 744 752 756 748 731 734 754 759 754 748 742 739 734 734 736 737 742 748 760 762 762 770 763 757 755 756 785 798 785 790 789 776 772 773 772 767 769 776 779 785 788 785 781 779 776 772 770
799 797 795 792 790 787 785 783 781 779 777 774 772 772 767 764 769 770 763 759 750 743 746 743 739 741 738 731 729 732 736 738 737 734 735 734 734 742 744 743 752 758 753 749 746 731 734 760 759 743 735 728 728 729 732 735 736 738 742 754 759 759 765 756 751 752 751 780 799 783 786 787 774 775 773 766 769 773 772 774 784 787 785 781 777 775 772 769
799 797 793 791 788 786 783 781 779 777 776 774 773 771 762 759 764 763 761 763 749 736 739 737 736 738 732 730 732 733 740 744 741 735 732 732 736 747 747 746 760 761 748 744 750 749 752 758 747 733 725 721 726 729 732 736 735 739 740 749 758 755 759 753 743 748 752 774 793 784 786 787 772 771 771 765 768 771 766 766 772 776 777 776 774 773 771 770
799 795 793 791 787 785 782 779 777 775 774 773 771 767 761 759 760 758 760 767 757 738 735 736 739 740 736 735 732 735 745 748 746 738 728 733 740 744 746 750 758 756 750 750 754 763 765 750 732 724 721 724 733 732 733 736 734 737 737 746 758 753 760 767 757 754 755 765 781 781 784 787 777 771 770 765 764 764 764 764 764 765 768 769 769 769 769 770
797 794 793 789 786 784 780 777 774 772 771 770 768 764 761 761 760 760 760 764 761 742 730 730 732 735 736 733 729 736 746 742 741 735 725 733 741 740 745 747 752 756 753 748 748 756 756 736 719 721 724 729 738 738 736 740 741 737 732 742 755 750 751 760 759 760 764 767 770 774 788 792 781 780 777 768 764 765 766 767 766 765 764 765 765 765 766 767
796 794 791 788 786 781 779 777 772 771 770 767 765 762 761 763 760 761 764 768 765 745 731 729 730 731 727 728 731 733 740 739 735 728 720 728 737 741 745 741 747 758 753 746 747 750 745 726 718 726 730 731 740 743 736 739 747 744 737 736 740 742 746 750 751 762 785 793 770 767 801 806 781 780 784 773 770 773 770 768 770 769 765 766 767 765 766 768
795 793 790 788 785 780 778 775 771 772 770 764 763 761 762 763 761 762 767 775 769 748 740 738 736 735 727 731 732 730 746 746 727 719 717 724 728 733 746 743 743 753 746 740 743 742 734 723 720 729 733 735 742 744 734 733 749 753 739 730 730 734 744 750 750 767 799 805 771 764 800 810 787 781 782 774 774 776 773 770 769 769 767 766 767 767 767 770
795 791 789 787 784 782 779 774 774 773 768 764 762 763 763 763 763 762 771 788 774 745 742 742 736 735 731 730 728 738 760 745 723 721 717 724 726 726 746 749 745 749 737 739 754 744 730 729 728 730 738 744 747 746 732 727 748 752 729 725 734 733 740 751 754 769 787 788 777 770 784 803 800 785 773 770 777 779 776 774 770 769 768 766 766 766 766 769
793 790 788 785 783 785 782 778 777 771 767 766 763 764 764 763 764 764 781 801 773 736 736 738 731 729 726 726 727 739 746 733 736 736 715 721 729 728 749 750 745 747 732 747 770 746 726 735 735 733 743 748 745 740 726 721 741 740 720 726 734 729 735 745 758 778 783 789 804 789 780 806 807 782 770 770 779 785 780 776 773 770 769 766 765 766 766 768
790 788 786 783 781 782 780 779 777 770 768 766 766 767 763 763 764 768 790 798 762 732 733 734 733 732 728 731 735 736 732 729 740 734 716 725 727 727 745 744 740 746 734 741 759 742 725 728 728 732 742 742 735 728 718 721 734 727 719 729 728 726 735 742 761 787 795 808 822 796 782 812 814 785 779 783 784 786 781 775 773 771 769 767 766 768 768 769
787 786 784 781 780 780 779 777 773 769 767 766 768 766 762 766 770 784 803 786 750 735 732 733 738 737 735 743 745 740 736 735 733 728 727 731 728 728 734 730 734 747 742 738 744 737 723 717 719 729 734 728 723 720 716 721 727 723 727 736 732 733 741 749 761 778 799 814 808 781 774 806 824 799 780 780 778 775 776 775 773 770 768 768 768 768 768 769
784 783 782 779 778 779 779 774 769 769 768 768 768 764 766 771 776 796 797 759 741 742 735 737 740 735 739 749 750 745 742 738 733 737 741 739 740 742 742 743 746 754 757 752 746 737 728 728 728 724 721 721 725 728 723 720 720 727 737 742 749 756 756 763 768 776 805 814 787 774 777 795 818 802 770 766 762 758 767 773 773 773 770 767 767 767 766 768
780 779 778 776 775 776 775 770 767 769 769 768 767 764 772 782 784 789 770 743 749 750 735 737 739 736 742 745 745 745 745 741 737 742 746 748 752 750 752 757 756 768 777 766 756 747 739 737 731 724 718 720 734 742 737 729 725 732 742 748 765 780 782 791 792 791 809 804 773 772 786 794 802 787 763 760 758 754 758 762 765 769 768 766 764 765 766 766
777 775 774 773 772 772 770 768 768 770 769 768 768 766 777 793 788 770 753 746 752 741 727 732 734 734 741 745 744 741 742 741 737 741 743 744 750 749 749 747 743 761 772 762 760 761 754 741 730 732 727 718 730 748 752 744 734 737 743 751 771 789 803 811 802 797 804 795 772 768 783 797 798 780 763 758 757 754 753 754 759 761 763 765 765 765 767 766
773 772 772 770 770 769 768 769 769 769 769 767 771 775 786 796 778 755 751 748 739 730 727 730 732 736 741 743 740 735 742 744 733 739 745 743 751 753 749 746 740 745 754 758 760 760 767 760 736 733 731 720 724 737 742 738 735 735 727 736 762 777 795 804 794 795 797 788 783 783 796 811 804 782 761 752 752 752 753 754 755 757 759 764 767 768 770 770
772 771 770 769 769 767 766 768 768 769 769 768 774 782 790 792 773 755 752 741 732 732 730 728 733 743 746 740 732 726 737 744 733 737 745 745 751 751 746 745 740 739 749 763 759 749 762 759 726 714 715 714 724 723 720 733 746 737 720 734 755 751 761 778 777 776 779 786 796 797 802 802 786 768 752 748 754 754 756 758 755 759 761 764 770 771 772 773
771 770 770 768 768 766 766 768 767 769 768 770 781 785 781 777 765 751 742 735 733 732 734 738 740 747 752 745 738 729 729 736 736 740 744 742 743 741 737 734 731 735 744 753 753 748 759 753 717 707 709 707 716 715 712 732 747 739 734 744 741 723 735 766 776 767 770 798 813 804 800 791 779 773 757 750 760 760 760 761 759 763 766 768 773 772 771 771
772 770 768 765 765 766 767 766 767 768 767 772 785 782 768 757 745 736 732 731 731 727 736 751 745 744 751 749 745 738 734 736 739 743 746 744 742 735 731 726 719 726 731 736 743 737 747 751 718 708 721 708 701 709 711 714 726 741 748 739 726 723 731 753 777 779 779 803 816 806 800 795 795 795 774 759 766 766 763 763 764 767 768 772 774 771 770 769
773 771 767 762 763 765 765 766 767 765 767 776 782 774 759 748 736 730 728 728 730 730 740 749 741 738 744 746 744 737 738 743 743 746 747 745 742 731 728 728 718 718 719 725 741 734 738 757 731 707 722 714 698 715 727 715 711 727 731 718 727 752 759 761 779 787 788 804 813 801 791 792 797 792 778 771 770 767 766 766 768 770 769 772 773 771 770 770
775 773 767 759 761 763 764 766 764 763 772 780 779 770 756 742 732 726 725 728 731 735 742 740 733 736 736 733 735 734 739 745 742 745 748 746 742 726 719 725 721 718 716 719 737 736 736 762 753 716 712 716 712 728 746 736 718 717 721 718 726 744 754 759 763 770 784 801 809 803 795 793 787 774 769 771 766 762 767 768 768 769 769 770 771 770 770 771
771 773 767 756 759 764 762 764 764 768 777 774 767 764 753 739 731 725 722 726 729 733 738 735 730 735 733 724 725 730 736 740 737 740 742 737 740 732 718 719 721 719 718 720 730 734 734 754 761 731 713 725 734 733 738 739 730 730 739 742 740 735 737 747 750 750 767 789 801 807 809 793 769 757 759 762 758 757 762 767 767 767 768 770 769 769 770 769
771 774 767 756 760 762 761 767 769 769 772 766 758 755 746 739 736 729 722 723 726 725 727 732 731 732 731 724 723 726 734 739 735 735 735 730 737 739 719 711 718 719 724 731 733 736 739 746 754 744 732 739 737 719 715 723 725 728 735 740 741 739 741 759 768 754 750 772 787 797 810 795 761 750 753 752 752 753 756 763 766 766 768 771 770 769 769 769
775 776 764 755 760 760 762 771 768 761 762 761 757 749 739 739 739 733 725 723 727 724 722 729 731 727 726 723 720 724 732 739 735 731 732 728 728 728 712 703 712 715 723 737 733 726 730 740 750 750 737 730 718 704 705 712 713 718 723 723 726 731 738 761 780 769 758 769 775 783 804 796 763 750 753 752 750 750 753 761 765 767 769 771 771 769 769 770
775 771 757 754 758 756 766 776 767 760 756 749 745 740 734 736 737 733 728 727 729 728 726 729 727 724 723 719 720 724 728 735 735 725 725 725 718 713 705 704 712 714 720 735 732 721 728 744 755 755 739 721 708 700 699 703 712 723 724 719 724 727 728 738 751 754 760 770 774 791 812 799 765 749 748 749 749 751 756 760 763 767 768 768 769 769 771 772
776 768 755 754 756 756 769 777 769 765 759 748 744 741 736 736 735 733 732 732 730 729 731 730 726 726 724 718 721 725 725 733 734 721 718 723 718 709 705 707 714 718 721 727 724 722 736 749 758 767 766 753 743 734 723 716 721 728 725 720 722 720 719 728 733 740 762 771 771 792 812 795 767 753 748 748 752 757 760 759 760 766 769 768 768 769 772 775
779 770 757 751 751 755 764 764 760 762 764 761 755 750 749 746 738 732 730 730 725 725 736 737 725 723 723 721 727 727 725 732 733 724 720 722 719 710 707 711 715 716 715 714 710 716 734 744 752 771 782 778 774 762 742 730 728 729 727 723 721 719 723 735 742 753 771 772 768 786 801 789 769 759 757 756 758 760 761 759 760 763 766 767 767 771 775 776
783 776 765 754 749 752 756 752 751 757 763 767 762 756 759 760 749 734 729 733 727 723 738 740 726 725 729 731 739 739 731 729 730 729 727 724 719 710 708 713 714 713 714 713 709 715 731 738 740 755 764 761 758 745 725 721 731 737 736 731 728 726 726 735 749 759 763 767 776 783 783 781 776 766 764 764 762 762 762 761 762 762 764 767 770 775 777 776
783 780 773 770 765 759 755 750 750 753 755 760 766 763 762 770 769 748 735 740 735 727 737 737 731 741 746 744 751 751 742 738 736 734 731 725 719 714 713 715 715 714 716 716 713 720 739 745 739 743 747 741 737 730 717 718 731 735 733 730 730 729 729 736 746 745 741 761 785 780 767 775 778 766 764 766 762 760 760 760 762 764 766 769 773 776 777 776
784 781 771 775 779 771 765 762 758 756 753 753 763 765 762 776 787 770 747 742 739 737 743 744 741 750 752 745 751 756 752 751 750 744 738 733 729 725 722 720 717 716 719 720 717 723 743 750 739 737 741 735 729 725 719 719 724 726 726 726 726 726 730 736 736 730 731 755 775 769 763 773 772 763 762 760 755 755 756 759 761 764 768 772 775 777 776 775
789 787 775 774 781 775 769 766 761 761 759 756 762 762 760 774 788 774 748 744 755 755 751 753 752 750 747 739 740 752 760 761 761 754 746 743 740 735 732 729 721 714 718 726 722 722 741 751 739 735 738 734 729 726 722 722 725 725 727 727 725 722 723 726 727 722 725 740 753 756 761 764 759 756 756 750 748 750 754 759 762 767 773 777 778 778 776 775
799 799 790 785 784 775 768 763 760 763 760 756 761 759 753 762 770 762 744 746 768 770 755 754 755 747 747 745 743 750 753 754 760 756 748 749 749 745 742 736 725 716 720 729 726 723 740 750 738 734 743 739 729 726 725 727 732 733 732 727 722 722 723 725 727 725 726 736 742 747 759 759 747 744 748 748 750 754 759 764 767 770 775 777 778 777 775 776
806 804 800 799 792 780 773 766 761 765 763 757 759 759 756 757 756 755 748 742 754 762 753 752 752 744 746 753 754 752 743 742 750 746 740 744 746 743 739 729 723 724 726 730 730 727 738 747 737 737 753 747 728 726 729 725 729 736 736 728 724 727 730 727 725 726 727 733 738 743 757 761 748 744 752 754 756 761 766 768 770 772 775 776 776 775 776 777
809 805 801 802 798 785 777 770 763 766 766 759 758 759 760 758 751 753 758 749 744 748 747 747 749 748 751 758 761 754 741 737 740 735 731 733 730 727 727 721 720 725 726 728 731 727 733 744 741 742 757 752 732 728 727 724 736 747 739 730 730 732 729 724 725 728 724 725 739 751 756 754 748 749 756 759 760 765 767 767 771 774 775 775 774 775 777 777